User: anonymous   Login
Location: Rayville (historical)
(39.9992°N, 99.6815°W)
Time: 20:06:06
(UTC+00:00)
Language:

STARLINK-65 - Orbit

View from above orbital plane
View from above orbital plane
View from above satellite
View from above satellite

Ground track
Ground track

The orbit data is extracted from the following two-line orbital elements,

1 44276U 19029AT  20158.58334491 +.05743019 +00000-0 +14891+0 0  9998
2 44276 052.9987 258.6703 0003818 058.9656 337.1353 15.33786036057464
Epoch (UTC): 06 June 2020 14:00:01
Eccentricity: 0.0003818
inclination: 52.9987°
perigee height: 462 km
apogee height: 467 km
right ascension of ascending node: 258.6703°
argument of perigee: 58.9656°
revolutions per day: 15.33786036
mean anomaly at epoch: 337.1353°
orbit number at epoch: 5746

The dashed part of the orbit path shows where the satellite is in the earth's shadow,  

DLR